sat.trackr.live / text

‹ back to catalog

GONETS-M 11

NORAD 40552 · 2015-020A

PAYLOAD ACTIVE UNKNOWN

§ Identity

Operator
Country
CIS
Launch date
2015-03-31
Launch site
PLMSC
Launch vehicle
Mass (kg)
RCS (m²)
1.64

External: N2YO · Heavens-Above · Gunter

§ Orbital elements

Epoch: 2026-09-20T05:41:15.308736Z

Period
115.86 min
Inclination
82.4902°
Eccentricity
0.0017013
Mean motion
12.42881616 rev/d
Perigee alt
1,481.0 km
Apogee alt
1,507.8 km
Semi-major
7,872.5 km
B*
6.0349e-4
RAAN
331.7762°
Arg perigee
152.2416°
Mean anomaly
207.9575°
Rev number
52,054

§ Raw data

GONETS-M 111 40552U 15020A   26263.23698274  .00000094  00000+0  60349-3 0  99912 40552  82.4902 331.7762 0017013 152.2416 207.9575 12.42881616520545

JSON: /api/v1/satellites/40552 · /tle

For live sub-satellite position, see the globe view (requires WebGL).

§ Visibility from observer

Set your observer location to see the next 7 days of passes ≥ 10°. The values pass through the URL so the page stays shareable.

No JS? Fill the form by hand. The geolocation button needs JavaScript.

§ Radio — SatNOGS DB

ModeDescriptionDownlinkUplink
FM Telemetry 264.981 MHz
FM UHF Unknown 387.062 MHz
FM UHF Unknown 387.625 MHz
FM UHF Unknown 387.837 MHz

4 transmitters · refreshed weekly from db.satnogs.org